Meadville, PA

3:26 PM EDT on April 25, 2017 (GMT -0400)
Port Meadville

Weather History for KGKJ - February, 2012

Change the Weather History Date:

Tuesday, February 7, 2012

  Actual Average Record
Temperature  
Mean Temperature 32 °F -  
Max Temperature 35 °F 30 °F 54 °F (2017)
Min Temperature 28 °F 12 °F -9 °F (1988)
Degree Days  
Heating Degree Days 32    
Moisture  
Dew Point 28 °F    
Average Humidity 85    
Maximum Humidity 93    
Minimum Humidity 70    
Precipitation  
Precipitation 0.00 in - - ()
Sea Level Pressure  
Sea Level Pressure 30.19 in    
Wind  
Wind Speed 5 mph (NW)    
Max Wind Speed 8 mph    
Max Gust Speed -    
Visibility 7 miles    
Events Snow    
Averages and records for this station are not official NWS values.
T = Trace of Precipitation, MM = Missing Value Source: NWS Daily Summary

Daily Weather History Graph

Daily Weather History Graph

Search for Another Location

Airport or City:

Trip Planner

Search our weather history database for the weather conditions in past years. The results will help you decide how hot, cold, wet, or windy it might be!

Date:

Astronomy

Feb. 07, 2012 Rise Set
Actual Time 7:26 AM EST 5:43 PM EST
Civil Twilight 6:57 AM EST 6:12 PM EST
Nautical Twilight 6:24 AM EST 6:45 PM EST
Astronomical Twilight 5:52 AM EST 7:17 PM EST
Moon 5:53 PM EST (2/7) 6:54 AM EST (2/7)
Length of Visible Light 11h 14m
Length of Day
10h 16m
Full, 100% of the Moon is Illuminated
Feb 7
Full
Feb 7
Full
Feb 14
Last Quarter
Feb 21
New
Feb 29
First Quarter

Hourly Weather History & Observations

Time (EST) Temp. Windchill Dew Point Humidity Pressure Visibility Wind Dir Wind Speed Gust Speed Precip Events Conditions
12:53 AM 32.0 °F 26.4 °F 27.0 °F 82% 30.09 in 10.0 mi WSW 5.8 mph - N/A   Clear
1:53 AM 30.9 °F 25.2 °F 27.0 °F 85% 30.10 in 10.0 mi West 5.8 mph - N/A   Clear
2:53 AM 30.9 °F 24.3 °F 27.0 °F 85% 30.10 in 8.0 mi West 6.9 mph - N/A   Mostly Cloudy
3:36 AM 32.0 °F 25.6 °F 28.4 °F 87% 30.08 in 7.0 mi West 6.9 mph - N/A   Overcast
3:53 AM 32.0 °F 25.6 °F 28.0 °F 85% 30.12 in 6.0 mi West 6.9 mph - N/A   Overcast
4:53 AM 32.0 °F 27.5 °F 28.9 °F 88% 30.11 in 5.0 mi WNW 4.6 mph - N/A   Overcast
5:15 AM 32.0 °F 28.7 °F 28.4 °F 87% 30.08 in 5.0 mi West 3.5 mph - N/A   Overcast
5:47 AM 32.0 °F 28.7 °F 28.4 °F 87% 30.08 in 5.0 mi WNW 3.5 mph - N/A   Overcast
5:53 AM 32.0 °F 28.7 °F 28.9 °F 88% 30.12 in 5.0 mi NW 3.5 mph - N/A   Overcast
6:01 AM 30.2 °F 26.7 °F 28.4 °F 93% 30.09 in 5.0 mi WNW 3.5 mph - N/A   Overcast
6:53 AM 30.9 °F 25.2 °F 28.0 °F 89% 30.16 in 6.0 mi WSW 5.8 mph - N/A   Overcast
7:08 AM 30.2 °F 22.6 °F 26.6 °F 86% 30.13 in 7.0 mi West 8.1 mph - N/A   Overcast
7:44 AM 30.2 °F 25.4 °F 28.4 °F 93% 30.15 in 7.0 mi West 4.6 mph - N/A   Overcast
7:53 AM 30.9 °F 24.3 °F 28.0 °F 89% 30.19 in 6.0 mi West 6.9 mph - N/A   Overcast
8:05 AM 30.2 °F 24.3 °F 28.4 °F 93% 30.16 in 5.0 mi West 5.8 mph - N/A   Overcast
8:14 AM 30.2 °F 25.4 °F 28.4 °F 93% 30.16 in 4.0 mi West 4.6 mph - N/A   Overcast
8:53 AM 30.9 °F - 28.9 °F 92% 30.21 in 3.0 mi Calm Calm - N/A   Overcast
9:53 AM 32.0 °F 27.5 °F 28.9 °F 88% 30.22 in 4.0 mi West 4.6 mph - N/A   Overcast
10:53 AM 33.1 °F - 28.9 °F 85% 30.23 in 5.0 mi Calm Calm - N/A   Overcast
11:53 AM 33.1 °F 26.9 °F 28.9 °F 85% 30.23 in 4.0 mi WNW 6.9 mph - N/A   Overcast
12:53 PM 33.1 °F 27.7 °F 28.9 °F 85% 30.22 in 4.0 mi NW 5.8 mph - N/A   Overcast
1:07 PM 33.8 °F 28.6 °F 28.4 °F 81% 30.18 in 5.0 mi NW 5.8 mph - N/A   Haze
1:50 PM 33.8 °F 29.6 °F 28.4 °F 81% 30.17 in 6.0 mi NW 4.6 mph - N/A   Haze
1:53 PM 34.0 °F 31.0 °F 28.9 °F 82% 30.22 in 7.0 mi Variable 3.5 mph - N/A   Overcast
2:12 PM 33.8 °F 29.6 °F 28.4 °F 81% 30.18 in 7.0 mi NW 4.6 mph - N/A   Overcast
2:31 PM 33.8 °F 29.6 °F 28.4 °F 81% 30.18 in 8.0 mi WNW 4.6 mph - N/A   Overcast
2:53 PM 34.0 °F 29.8 °F 28.0 °F 79% 30.22 in 8.0 mi WNW 4.6 mph - N/A   Overcast
3:05 PM 33.8 °F 29.6 °F 28.4 °F 81% 30.18 in 8.0 mi WNW 4.6 mph - N/A   Overcast
3:31 PM 35.6 °F 32.8 °F 26.6 °F 70% 30.19 in 10.0 mi NNW 3.5 mph - N/A   Overcast
3:38 PM 35.6 °F 32.8 °F 26.6 °F 70% 30.19 in 10.0 mi NNW 3.5 mph - N/A   Overcast
3:53 PM 34.0 °F 29.8 °F 27.0 °F 75% 30.24 in 10.0 mi NNW 4.6 mph - N/A   Overcast
4:53 PM 33.1 °F 28.7 °F 28.0 °F 82% 30.25 in 10.0 mi North 4.6 mph - N/A   Overcast
5:00 PM 33.8 °F 30.8 °F 28.4 °F 81% 30.21 in 10.0 mi NNW 3.5 mph - N/A   Overcast
5:11 PM 33.8 °F 30.8 °F 28.4 °F 81% 30.21 in 10.0 mi NW 3.5 mph - N/A   Overcast
5:53 PM 33.1 °F 30.0 °F 28.0 °F 82% 30.26 in 6.0 mi NW 3.5 mph - 0.00 in Snow Light Snow
6:09 PM 32.0 °F 27.5 °F 28.4 °F 87% 30.22 in 9.0 mi North 4.6 mph - 0.00 in   Overcast
6:25 PM 32.0 °F 28.7 °F 28.4 °F 87% 30.22 in 10.0 mi NNW 3.5 mph - 0.00 in   Overcast
6:44 PM 32.0 °F 28.7 °F 28.4 °F 87% 30.23 in 10.0 mi NNW 3.5 mph - 0.00 in   Overcast
6:53 PM 32.0 °F 25.6 °F 28.9 °F 88% 30.27 in 10.0 mi NNW 6.9 mph - 0.00 in   Overcast
7:53 PM 30.9 °F 25.2 °F 28.9 °F 92% 30.28 in 3.0 mi North 5.8 mph - 0.00 in Snow Light Snow
8:53 PM 30.9 °F 26.2 °F 28.0 °F 89% 30.30 in 8.0 mi NNE 4.6 mph - 0.00 in   Overcast
9:38 PM 30.2 °F 25.4 °F 26.6 °F 86% 30.25 in 10.0 mi North 4.6 mph - N/A   Overcast
9:53 PM 30.0 °F 25.2 °F 27.0 °F 88% 30.29 in 10.0 mi NE 4.6 mph - N/A   Overcast
10:53 PM 30.0 °F 25.2 °F 26.1 °F 85% 30.29 in 10.0 mi NNE 4.6 mph - N/A   Scattered Clouds
11:21 PM 30.2 °F - 24.8 °F 80% 30.25 in 10.0 mi Calm Calm - N/A   Mostly Cloudy
11:53 PM 28.9 °F - 25.0 °F 85% 30.30 in 10.0 mi Calm Calm - N/A   Mostly Cloudy